Time,TemperatureF,DewpointF,PressureIn,WindDirection,WindDirectionDegrees,WindSpeedMPH,WindSpeedGustMPH,Humidity,HourlyPrecipIn,Conditions,Clouds,dailyrainin,SoftwareType,DateUTC
2013-01-03 07:22:00,20.0,16.0,30.11,SSW,211,3.0,6.0,86,0.00,,,0.00,,2013-01-03 12:22:00,
2013-01-03 07:33:00,21.0,17.0,30.11,SSE,159,2.0,5.0,86,0.00,,,0.00,,2013-01-03 12:33:00,
2013-01-03 07:43:00,21.0,17.0,30.11,SSE,159,2.0,5.0,86,0.00,,,0.00,,2013-01-03 12:43:00,
2013-01-03 07:53:00,21.0,17.0,30.11,SW,214,1.0,5.0,85,0.00,,,0.00,,2013-01-03 12:53:00,
2013-01-03 08:02:00,21.0,17.0,30.11,South,170,3.0,5.0,85,0.00,,,0.00,,2013-01-03 13:02:00,
2013-01-03 08:13:00,21.0,17.0,30.11,South,170,3.0,5.0,85,0.00,,,0.00,,2013-01-03 13:13:00,
2013-01-03 08:22:00,21.0,17.0,30.11,South,172,3.0,6.0,85,0.00,,,0.00,,2013-01-03 13:22:00,
2013-01-03 08:33:00,21.0,17.0,30.10,South,184,3.0,7.0,86,0.00,,,0.00,,2013-01-03 13:33:00,
2013-01-03 08:42:00,21.0,17.0,30.10,South,184,3.0,7.0,86,0.00,,,0.00,,2013-01-03 13:42:00,
2013-01-03 08:53:00,21.0,17.0,30.10,SSW,198,2.0,7.0,86,0.00,,,0.00,,2013-01-03 13:53:00,
2013-01-03 09:03:00,21.0,18.0,30.09,South,179,2.0,7.0,87,0.00,,,0.00,,2013-01-03 14:03:00,
2013-01-03 09:12:00,21.0,18.0,30.09,South,179,2.0,7.0,87,0.00,,,0.00,,2013-01-03 14:12:00,
2013-01-03 09:23:00,21.0,18.0,30.09,WSW,240,1.0,6.0,87,0.00,,,0.00,,2013-01-03 14:23:00,
2013-01-03 09:33:00,21.0,18.0,30.09,South,174,2.0,5.0,88,0.00,,,0.00,,2013-01-03 14:33:00,
2013-01-03 09:43:00,21.0,18.0,30.09,South,174,2.0,5.0,88,0.00,,,0.00,,2013-01-03 14:43:00,
2013-01-03 09:53:00,22.0,19.0,30.10,SSW,201,2.0,7.0,88,0.00,,,0.00,,2013-01-03 14:53:00,
2013-01-03 10:03:00,22.0,19.0,30.09,SW,217,4.0,8.0,88,0.00,,,0.00,,2013-01-03 15:03:00,
2013-01-03 10:12:00,22.0,19.0,30.09,SW,217,4.0,8.0,88,0.00,,,0.00,,2013-01-03 15:12:00,
2013-01-03 10:23:00,23.0,20.0,30.09,SSW,198,3.0,8.0,88,0.00,,,0.00,,2013-01-03 15:23:00,
2013-01-03 10:33:00,23.0,20.0,30.09,West,266,3.0,10.0,88,0.00,,,0.00,,2013-01-03 15:33:00,
2013-01-03 10:43:00,23.0,20.0,30.09,West,266,3.0,10.0,88,0.00,,,0.00,,2013-01-03 15:43:00,
2013-01-03 10:53:00,23.0,20.0,30.09,South,186,3.0,8.0,87,0.00,,,0.00,,2013-01-03 15:53:00,
2013-01-03 11:03:00,23.0,19.0,30.08,SW,236,6.0,12.0,86,0.00,,,0.00,,2013-01-03 16:03:00,
2013-01-03 11:12:00,23.0,19.0,30.08,SW,236,6.0,12.0,86,0.00,,,0.00,,2013-01-03 16:12:00,
2013-01-03 11:23:00,24.0,20.0,30.07,SW,225,7.0,11.0,86,0.00,,,0.00,,2013-01-03 16:23:00,
2013-01-03 11:33:00,24.0,20.0,30.06,SW,215,5.0,14.0,86,0.00,,,0.00,,2013-01-03 16:33:00,
2013-01-03 11:43:00,24.0,20.0,30.06,SW,215,5.0,14.0,86,0.00,,,0.00,,2013-01-03 16:43:00,
2013-01-03 11:53:00,24.0,20.0,30.05,South,184,8.0,12.0,86,0.00,,,0.00,,2013-01-03 16:53:00,
2013-01-03 12:03:00,24.0,20.0,30.04,WSW,242,6.0,13.0,86,0.00,,,0.00,,2013-01-03 17:03:00,
2013-01-03 12:13:00,24.0,20.0,30.04,WSW,242,6.0,13.0,86,0.00,,,0.00,,2013-01-03 17:13:00,
2013-01-03 12:23:00,24.0,20.0,30.03,SW,217,5.0,12.0,86,0.00,,,0.00,,2013-01-03 17:23:00,
2013-01-03 12:33:00,25.0,21.0,30.01,WSW,252,8.0,15.0,86,0.00,,,0.00,,2013-01-03 17:33:00,
2013-01-03 12:43:00,25.0,21.0,30.01,WSW,252,8.0,15.0,86,0.00,,,0.00,,2013-01-03 17:43:00,
2013-01-03 12:53:00,25.0,21.0,30.00,SW,226,9.0,18.0,86,0.00,,,0.00,,2013-01-03 17:53:00,
2013-01-03 13:03:00,25.0,21.0,30.00,SW,236,9.0,16.0,86,0.00,,,0.00,,2013-01-03 18:03:00,
2013-01-03 13:13:00,25.0,21.0,30.00,SW,236,9.0,16.0,86,0.00,,,0.00,,2013-01-03 18:13:00,
2013-01-03 13:22:00,25.0,21.0,29.99,SSW,212,10.0,18.0,86,0.00,,,0.00,,2013-01-03 18:22:00,
2013-01-03 13:33:00,26.0,22.0,29.98,WSW,238,8.0,14.0,86,0.00,,,0.00,,2013-01-03 18:33:00,
2013-01-03 13:43:00,26.0,22.0,29.98,WSW,238,8.0,14.0,86,0.00,,,0.00,,2013-01-03 18:43:00,
2013-01-03 13:53:00,28.0,23.0,29.98,WSW,257,11.0,19.0,82,0.00,,,0.00,,2013-01-03 18:53:00,
2013-01-03 14:03:00,28.0,22.0,29.97,West,260,15.0,23.0,79,0.00,,,0.00,,2013-01-03 19:03:00,
2013-01-03 14:12:00,28.0,22.0,29.97,West,260,15.0,23.0,79,0.00,,,0.00,,2013-01-03 19:12:00,
2013-01-03 14:57:00,29.0,23.0,29.96,SW,228,12.0,25.0,79,0.00,,,0.00,,2013-01-03 19:57:00,
2013-01-03 15:03:00,29.0,24.0,29.96,SW,232,11.0,20.0,80,0.00,,,0.00,,2013-01-03 20:03:00,
2013-01-03 15:13:00,29.0,24.0,29.96,SW,232,11.0,20.0,80,0.00,,,0.00,,2013-01-03 20:13:00,
2013-01-03 15:23:00,29.0,24.0,29.96,WSW,246,13.0,17.0,81,0.00,,,0.00,,2013-01-03 20:23:00,
2013-01-03 15:33:00,29.0,24.0,29.96,WSW,252,12.0,22.0,81,0.00,,,0.00,,2013-01-03 20:33:00,
2013-01-03 15:42:00,29.0,24.0,29.96,WSW,252,12.0,22.0,81,0.00,,,0.00,,2013-01-03 20:42:00,
2013-01-03 15:53:00,29.0,24.0,29.96,WSW,253,14.0,25.0,82,0.00,,,0.00,,2013-01-03 20:53:00,
2013-01-03 16:02:00,29.0,25.0,29.96,WSW,243,13.0,23.0,84,0.00,,,0.00,,2013-01-03 21:02:00,
2013-01-03 16:13:00,29.0,25.0,29.96,WSW,243,13.0,23.0,84,0.00,,,0.00,,2013-01-03 21:13:00,
2013-01-03 16:23:00,30.0,26.0,29.96,WSW,257,11.0,21.0,86,0.00,,,0.00,,2013-01-03 21:23:00,
2013-01-03 16:37:00,30.0,26.0,29.96,WSW,248,12.0,20.0,84,0.00,,,0.00,,2013-01-03 21:37:00,
2013-01-03 16:49:00,30.0,26.0,29.96,WSW,248,12.0,20.0,84,0.00,,,0.00,,2013-01-03 21:49:00,
2013-01-03 17:03:00,30.0,25.0,29.96,West,277,10.0,19.0,83,0.00,,,0.00,,2013-01-03 22:03:00,
2013-01-03 17:12:00,30.0,25.0,29.96,West,277,10.0,19.0,83,0.00,,,0.00,,2013-01-03 22:12:00,
2013-01-03 17:22:00,30.0,25.0,29.96,West,259,15.0,22.0,83,0.00,,,0.00,,2013-01-03 22:22:00,
2013-01-03 17:33:00,30.0,25.0,29.97,West,263,10.0,19.0,83,0.00,,,0.00,,2013-01-03 22:33:00,
2013-01-03 17:43:00,30.0,25.0,29.97,West,263,10.0,19.0,83,0.00,,,0.00,,2013-01-03 22:43:00,
2013-01-03 17:53:00,30.0,25.0,29.98,WSW,257,14.0,22.0,83,0.00,,,0.00,,2013-01-03 22:53:00,
2013-01-03 18:03:00,30.0,25.0,29.98,West,269,9.0,16.0,83,0.00,,,0.00,,2013-01-03 23:03:00,
2013-01-03 18:12:00,30.0,25.0,29.98,West,269,9.0,16.0,83,0.00,,,0.00,,2013-01-03 23:12:00,
2013-01-03 18:23:00,30.0,25.0,29.99,West,274,13.0,26.0,81,0.00,,,0.00,,2013-01-03 23:23:00,
2013-01-03 18:33:00,29.0,24.0,29.99,WNW,291,13.0,25.0,81,0.00,,,0.00,,2013-01-03 23:33:00,
2013-01-03 18:43:00,29.0,24.0,29.99,WNW,291,13.0,25.0,81,0.00,,,0.00,,2013-01-03 23:43:00,
2013-01-03 18:53:00,29.0,24.0,30.00,WNW,298,10.0,21.0,81,0.00,,,0.00,,2013-01-03 23:53:00,
2013-01-03 19:03:00,29.0,24.0,30.00,West,278,7.0,20.0,82,0.00,,,0.00,,2013-01-04 00:03:00,
2013-01-03 19:13:00,29.0,24.0,30.00,West,278,7.0,20.0,82,0.00,,,0.00,,2013-01-04 00:13:00,
2013-01-03 19:23:00,28.0,23.0,30.01,West,278,11.0,18.0,82,0.00,,,0.00,,2013-01-04 00:23:00,
2013-01-03 19:32:00,28.0,23.0,30.01,West,264,11.0,24.0,82,0.00,,,0.00,,2013-01-04 00:32:00,
2013-01-03 19:42:00,28.0,23.0,30.01,West,264,11.0,24.0,82,0.00,,,0.00,,2013-01-04 00:42:00,
2013-01-03 19:53:00,28.0,23.0,30.01,West,269,11.0,26.0,82,0.00,,,0.00,,2013-01-04 00:53:00,
2013-01-03 20:02:00,28.0,23.0,30.02,NW,312,15.0,24.0,82,0.00,,,0.00,,2013-01-04 01:02:00,
2013-01-03 20:12:00,28.0,23.0,30.02,NW,312,15.0,24.0,82,0.00,,,0.00,,2013-01-04 01:12:00,
2013-01-03 20:22:00,28.0,23.0,30.02,NW,312,15.0,24.0,82,0.00,,,0.00,,2013-01-04 01:22:00,
2013-01-03 20:33:00,28.0,23.0,30.02,NW,312,15.0,24.0,82,0.00,,,0.00,,2013-01-04 01:33:00,
2013-01-03 20:42:00,28.0,23.0,30.02,NW,312,15.0,24.0,82,0.00,,,0.00,,2013-01-04 01:42:00,